EST,Max TemperatureF,Mean TemperatureF,Min TemperatureF,Max Dew PointF,MeanDew PointF,Min DewpointF,Max Humidity, Mean Humidity, Min Humidity, Max Sea Level PressureIn, Mean Sea Level PressureIn, Min Sea Level PressureIn, Max VisibilityMiles, Mean VisibilityMiles, Min VisibilityMiles, Max Wind SpeedMPH, Mean Wind SpeedMPH, Max Gust SpeedMPH,PrecipitationIn, CloudCover, Events, WindDirDegrees
2012-11-1,64,50,35,30,24,19,64,42,19,29.90,29.84,29.79,10,10,10,13,5,20,0.00,0,,278
2012-11-2,76,58,40,40,33,24,71,49,27,29.96,29.89,29.79,10,10,10,21,7,26,0.00,0,,255
2012-11-3,74,57,39,44,37,32,85,55,25,30.09,30.00,29.96,10,10,9,12,3,14,0.00,0,,211
2012-11-4,68,59,49,52,43,37,86,65,43,29.99,29.95,29.90,10,10,10,9,5,14,0.03,3,,47
2012-11-5,62,53,43,42,36,32,71,53,35,30.07,30.01,29.97,10,10,10,9,5,14,0.00,2,,55
2012-11-6,50,46,42,37,34,31,82,69,56,30.08,30.01,29.94,10,10,10,17,8,23,0.01,7,Rain,31
2012-11-7,49,44,39,42,38,34,96,83,70,29.98,29.92,29.87,10,8,4,8,2,10,0.09,6,Rain,300
2012-11-8,66,53,40,37,29,20,86,53,19,30.14,30.07,29.98,10,10,10,15,6,23,0.00,0,,321
2012-11-9,69,51,33,37,31,26,89,55,21,30.27,30.21,30.14,10,10,10,9,3,14,0.00,0,,221
2012-11-10,73,54,35,41,34,30,85,54,22,30.36,30.29,30.24,10,10,10,12,2,17,0.00,0,,206
2012-11-11,72,55,38,53,43,35,85,65,44,30.46,30.38,30.35,10,10,10,20,4,26,0.00,4,,158
2012-11-12,70,62,54,63,58,53,100,83,66,30.35,30.23,30.16,10,6,1,22,6,25,0.44,7,Rain,196
2012-11-13,61,53,44,61,42,27,100,64,27,30.36,30.24,30.14,10,9,3,15,7,18,0.02,6,Rain,18
2012-11-14,51,44,37,30,29,28,76,59,41,30.46,30.37,30.30,10,10,10,20,9,24,0.00,2,,40
2012-11-15,53,45,36,36,34,30,92,72,52,30.32,30.28,30.22,10,10,5,16,6,20,0.31,4,Rain,38
2012-11-16,60,46,31,36,32,29,92,63,33,30.36,30.29,30.25,10,10,10,9,4,18,0.00,0,,33
2012-11-17,59,49,38,32,28,23,76,52,28,30.45,30.40,30.35,10,10,10,22,10,30,0.00,0,,32
2012-11-18,60,53,46,42,35,24,71,55,38,30.42,30.37,30.32,10,10,10,22,12,28,0.00,6,,27
2012-11-19,62,55,47,48,44,37,93,76,59,30.31,30.25,30.18,10,10,9,16,8,22,0.00,6,,26
2012-11-20,63,53,43,45,42,41,92,69,46,30.19,30.12,30.04,10,10,10,7,1,8,0.00,2,,53
2012-11-21,67,53,38,43,37,33,100,65,29,30.16,30.12,30.07,10,10,8,12,3,15,0.00,0,,53
2012-11-22,67,52,37,36,33,29,85,56,26,30.26,30.20,30.15,10,10,10,6,1,8,0.00,0,,34
2012-11-23,71,52,33,47,38,33,92,62,31,30.14,30.03,29.93,10,10,10,17,5,22,0.00,1,,273
2012-11-24,55,44,32,29,21,14,60,42,24,30.09,30.02,29.96,10,10,10,15,7,22,0.00,0,,356
2012-11-25,55,41,26,21,19,17,75,51,26,30.18,30.10,30.04,10,10,10,14,5,18,0.00,0,,211
2012-11-26,67,52,36,29,23,18,48,34,20,30.19,30.13,30.07,10,10,9,10,4,14,0.00,0,,196
2012-11-27,58,54,50,51,40,27,89,64,38,30.19,30.11,30.06,10,10,7,14,6,17,T,8,,229
2012-11-28,60,49,38,41,33,15,89,54,19,30.36,30.29,30.19,10,10,9,10,3,13,0.00,3,,23
2012-11-29,59,44,29,37,31,25,85,64,43,30.45,30.38,30.33,10,10,8,13,3,20,0.00,0,,193
2012-11-30,63,47,31,43,37,30,92,68,43,30.38,30.32,30.26,10,10,8,18,6,23,0.00,0,,217